Home   Weather   Yuma   Past weeks

Flag for USA Past Weather in Yuma, Arizona, USA — Yesterday and Last 2 Weeks

Now
53 °F

Clear.


Feels Like: 51 °F
Forecast: 49 / 61 °F
Wind: 7 mph from Southwest

Location: Yuma Marine Corps Air Station

Current Time: Jan 20, 2017 at 1:17:37 am

Latest Report: Jan 19, 2017 at 11:57 pm


Visibility: 10 mi

Pressure: 29.85 "Hg

Humidity: 61%

Dew Point: 40 °F

Location of YumaLocation

Past Weather in Yuma — Graph

°F

Yuma Temperature Yesterday

Maximum temperature yesterday: 68 °F (at 1:57 pm)
Minimum temperature yesterday: 53 °F (at 12:57 am)
Average temperature yesterday: 59 °F

High & Low Weather Summary for the Past Weeks

 TemperatureHumidityPressure
High73 °F (Jan 5, 3:57 pm)93% (Jan 14, 1:57 am)30.32 "Hg (Jan 14, 1:57 am)
Low45 °F (Jan 7, 4:57 am)17% (Jan 6, 2:57 pm)29.81 "Hg (Jan 5, 4:57 pm)
Average58 °F53%30.02 "Hg
* Reported Jan 4 11:57 pm — Jan 19 11:57 pm, Yuma, Weather by CustomWeather, © 2017

Note: Actual official high and low records may vary slightly from our data, if they occured in-between our weather recording intervals... More about our weather records

Advertising

Yuma Weather History for the Previous 24 Hours

Scroll right to see more
 ConditionsComfort  
Time TempWeatherWind HumidityBarometerVisibility
11:57 pm
Thu, Jan 19
53 °FClear.7 mph61%29.85 "Hg10 mi
10:57 pm56 °FClear.8 mph53%29.87 "Hg10 mi
9:57 pm57 °FClear.8 mph51%29.87 "Hg10 mi
8:57 pm60 °FClear.13 mph46%29.87 "Hg10 mi
7:57 pm60 °FPassing clouds.14 mph49%29.87 "Hg10 mi
6:57 pm63 °FPassing clouds.9 mph43%29.87 "Hg10 mi
5:57 pm64 °FPassing clouds.9 mph41%29.85 "Hg10 mi
4:57 pm67 °FScattered clouds.12 mph44%29.85 "Hg10 mi
3:57 pm67 °FPartly sunny.9 mph49%29.85 "Hg10 mi
2:57 pm68 °FPartly sunny.16 mph45%29.83 "Hg10 mi
1:57 pm68 °FPartly sunny.18 mph51%29.85 "Hg10 mi
12:57 pm66 °FPartly sunny.17 mph56%29.88 "Hg10 mi
11:57 am64 °FScattered clouds.21 mph63%29.93 "Hg10 mi
10:57 am61 °FPartly sunny.18 mph72%29.96 "Hg10 mi
9:57 am57 °FPartly sunny.7 mph67%29.98 "Hg10 mi
8:57 am55 °FBroken clouds.7 mph67%29.97 "Hg10 mi
7:57 am54 °FBroken clouds.5 mph64%29.97 "Hg10 mi
6:57 am54 °FPassing clouds.No wind69%29.98 "Hg10 mi
5:57 am54 °FOvercast.10 mph67%29.95 "Hg10 mi
4:57 am53 °FOvercast.3 mph72%29.96 "Hg10 mi
3:57 am53 °FOvercast.8 mph72%29.97 "Hg10 mi
2:57 am53 °FLight rain. Overcast.6 mph72%30.02 "Hg10 mi
1:57 am54 °FOvercast.No wind72%30.03 "Hg10 mi
Weather by CustomWeather, © 2017

See weather overviewHow to use our weather pages